User: anonymous   Login
Location: Muenchen
(48.1800°N, 11.5800°E)
Time: 20:12:59
(UTC+02:00)
Language:

Iridium 73 - Orbit

View from above orbital plane
View from above orbital plane
View from above satellite
View from above satellite

Ground track
Ground track

The orbit data is extracted from the following two-line orbital elements,

1 25344U 98032C   15212.35962546  .00000264  00000-0  64717-4 0  9992
2 25344 086.4464 133.1901 0002135 102.4220 018.9007 14.48778457908100
Epoch (UTC): 31 July 2015 08:37:51
Eccentricity: 0.0002135
inclination: 86.4464°
perigee height: 728 km
apogee height: 731 km
right ascension of ascending node: 133.1901°
argument of perigee: 102.4220°
revolutions per day: 14.48778457
mean anomaly at epoch: 18.9007°
orbit number at epoch: 90810

The dashed part of the orbit path shows where the satellite is in the earth's shadow,  

DLR